AKDT,Max TemperatureF,Mean TemperatureF,Min TemperatureF,Max Dew PointF,MeanDew PointF,Min DewpointF,Max Humidity, Mean Humidity, Min Humidity, Max Sea Level PressureIn, Mean Sea Level PressureIn, Min Sea Level PressureIn, Max VisibilityMiles, Mean VisibilityMiles, Min VisibilityMiles, Max Wind SpeedMPH, Mean Wind SpeedMPH, Max Gust SpeedMPH,PrecipitationIn, CloudCover, Events, WindDirDegrees
2013-3-1,17,12,7,9,6,1,87,81,67,30.03,29.88,29.55,10,6,2,8,2,,0.00,6,Snow,186
2013-3-2,13,3,-7,10,-3,-13,88,82,77,30.19,30.10,30.03,10,8,0,5,0,,0.00,6,Snow,180
2013-3-3,14,-1,-16,7,-10,-23,88,79,70,30.46,30.33,30.21,10,10,8,4,0,,0.00,2,Snow,-1
2013-3-4,17,2,-14,8,-8,-20,89,77,65,30.51,30.45,30.31,10,9,2,4,0,,0.00,0,Snow,55
2013-3-5,25,12,0,14,4,-5,89,79,59,30.30,30.12,29.96,10,10,10,4,1,,0.00,1,,-1
2013-3-6,14,3,-8,5,-4,-13,85,78,65,29.97,29.94,29.89,10,10,10,5,0,,0.00,1,,-1
2013-3-7,39,16,-8,20,4,-14,84,67,40,29.88,29.60,29.42,10,10,10,14,2,20,0.00,2,,88
2013-3-8,42,26,9,24,16,6,92,76,43,29.64,29.54,29.50,10,10,10,14,2,,0.00,2,,116
2013-3-9,38,26,13,27,20,11,93,77,47,30.04,29.89,29.65,10,9,3,9,4,,0.00,6,Snow,299
2013-3-10,28,16,4,27,18,0,93,85,57,30.36,30.12,30.04,10,7,0,12,5,,0.00,5,Fog-Snow,267
2013-3-11,21,9,-2,10,3,-8,86,80,64,30.61,30.52,30.36,10,10,10,6,2,,0.00,4,Snow,165
2013-3-12,22,2,-18,4,-13,-24,85,72,37,30.62,30.56,30.39,10,6,0,5,0,,0.00,0,Fog,170
2013-3-13,15,-3,-20,-5,-16,-26,81,57,33,30.38,30.30,30.25,10,10,9,28,7,37,0.00,1,Snow,45
2013-3-14,21,10,-2,-5,-14,-21,47,39,29,30.25,30.19,30.16,10,10,10,18,12,24,0.00,0,,56
2013-3-15,22,12,0,-5,-11,-16,55,39,26,30.19,30.05,29.96,10,10,10,20,11,25,0.00,0,,68
2013-3-16,26,9,-6,1,-7,-16,69,51,32,30.22,30.10,30.02,10,10,10,9,5,,0.00,0,,348
2013-3-17,16,0,-16,-3,-11,-22,79,65,41,30.34,30.28,30.19,10,9,1,6,1,,0.00,1,Snow,175
2013-3-18,18,5,-7,-3,-8,-13,76,61,39,30.18,30.09,30.03,10,10,10,8,3,,0.00,5,,177
2013-3-19,14,-3,-20,-4,-13,-27,79,63,37,30.18,30.13,30.08,10,10,10,12,2,,0.00,0,,274
2013-3-20,12,-1,-13,-2,-9,-19,80,68,52,30.09,30.03,29.96,10,10,7,7,4,,0.00,4,Snow,145
2013-3-21,21,11,1,5,-1,-6,85,71,39,30.14,30.08,30.02,10,7,2,13,5,,0.01,6,Snow,154
2013-3-22,30,22,15,15,5,-2,59,46,39,30.03,29.84,29.69,10,10,10,17,12,26,0.00,5,,136
2013-3-23,20,8,-13,18,2,-19,86,75,51,30.10,29.91,29.71,10,4,1,22,11,30,0.05,6,Snow,269
2013-3-24,7,-8,-23,2,-13,-30,85,74,58,30.08,29.94,29.81,10,5,1,5,1,,0.22,5,Snow,315
2013-3-25,7,4,2,0,-2,-5,85,75,63,29.82,29.73,29.65,10,6,2,9,3,,0.02,8,Snow,256
2013-3-26,4,-8,-20,-6,-11,-26,79,65,44,30.26,30.05,29.86,10,8,1,13,7,18,0.00,4,Snow,252
2013-3-27,11,-10,-30,-6,-19,-30,78,66,45,30.32,30.26,30.16,10,9,2,7,3,,0.00,0,,18
2013-3-28,31,2,-26,9,-10,-30,84,62,36,30.16,30.04,29.91,10,10,10,10,1,,0.00,2,,77
2013-3-29,43,22,2,16,8,-2,82,62,33,29.92,29.89,29.85,10,10,10,6,1,,0.00,1,,352
2013-3-30,37,18,0,18,9,-4,85,63,40,30.21,30.12,29.94,10,10,10,6,2,,0.00,3,,25
2013-3-31,39,25,12,24,17,7,82,68,50,30.26,30.22,30.15,10,10,10,7,2,,0.00,7,,143